GFSNIL_925_spd_003.txt.gz
Wind_Speed
15 15 16 16 14 13 13 15 16 18 19 20 23 26 25 26 29 29 30 34 32 25
16 15 14 12 12 14 15 15 18 21 24 24 26 27 30 30 30 31 34 30 28 29
18 15 14 13 13 14 13 18 21 22 22 25 28 29 30 32 31 30 31 33 32 32
19 16 14 14 15 15 18 18 21 21 25 29 31 32 29 29 33 31 34 35 32 30
20 15 14 14 14 14 17 19 21 25 28 31 29 31 33 35 36 37 35 34 32 30
18 15 15 13 14 16 18 21 24 25 29 29 33 34 35 34 35 35 36 31 33 32
19 16 14 15 16 17 18 23 25 26 28 30 33 32 32 32 33 29 30 31 34 33
19 17 16 15 16 18 22 24 21 22 26 29 30 30 25 28 30 31 34 35 34 29
17 15 16 15 16 20 20 17 18 23 26 28 28 28 27 28 29 31 32 32 32 34
17 16 13 13 16 13 13 18 22 23 25 28 29 28 27 28 29 31 33 30 31 35
15 12 11 12 9 11 16 20 22 23 26 27 28 28 28 28 27 28 32 30 33 31
11 11 10 8 11 16 19 21 21 23 26 27 26 28 20 26 28 28 30 31 25 25
13 12 9 11 14 17 18 19 19 24 25 22 25 20 27 26 25 24 27 24 26 27
13 10 10 13 16 18 18 17 21 23 23 23 17 25 26 25 27 23 23 23 29 30

GFSNIL_925_spd_006.txt.gz
Wind_Speed
21 20 18 17 17 16 16 13 12 13 14 15 18 20 21 23 25 27 27 27 28 30
24 22 19 18 17 16 15 14 14 13 16 19 19 20 23 26 28 28 29 30 29 31
26 23 20 18 15 15 14 13 13 15 18 17 19 22 25 28 28 29 29 30 32 34
28 24 22 19 15 15 14 13 14 16 16 20 23 24 25 27 30 30 31 32 33 34
30 26 24 20 16 15 14 13 14 16 19 21 24 25 26 30 30 31 31 32 31 32
33 28 25 20 15 14 13 14 15 17 20 23 24 25 28 28 30 29 28 29 29 31
34 30 25 19 15 14 13 15 16 18 20 20 22 26 28 26 27 29 29 29 29 31
33 29 23 18 16 14 14 16 17 15 15 21 23 26 24 27 27 29 30 31 31 31
33 27 22 18 16 14 15 15 11 13 17 20 23 25 24 24 27 28 28 31 30 33
31 26 21 18 16 15 12 9 13 16 18 21 24 24 23 24 25 21 25 25 32 35
30 24 20 17 15 12 9 11 14 17 19 20 23 24 22 21 21 28 27 29 29 30
28 23 19 17 14 12 10 12 15 18 19 21 23 22 20 21 27 28 29 29 27 20
26 22 18 16 14 11 11 13 17 19 19 21 21 20 20 24 25 23 24 23 21 27
21 18 17 15 12 11 13 15 18 18 19 21 17 19 23 21 21 20 21 21 23 28

GFSNIL_925_spd_009.txt.gz
Wind_Speed
32 28 24 22 19 18 17 16 13 12 11 11 11 13 16 17 19 20 23 24 24 26
35 31 27 23 19 19 18 17 15 14 13 13 14 15 15 18 19 21 23 25 26 27
38 33 27 23 21 20 18 17 15 14 14 14 14 15 17 18 20 23 25 26 26 27
39 34 28 24 22 20 18 17 15 14 13 14 15 17 18 20 21 25 25 25 27 28
40 35 31 27 25 22 19 17 14 13 14 14 16 17 19 19 22 23 26 25 25 28
40 36 33 29 27 23 19 16 14 13 14 14 16 16 17 20 21 22 24 26 28 28
41 37 35 31 28 23 19 16 14 13 14 15 13 16 17 19 20 23 24 26 28 28
42 38 35 32 28 22 18 15 14 13 13 12 15 15 16 19 21 23 25 25 22 24
39 38 37 33 28 22 18 15 14 12 11 13 14 15 17 17 20 21 14 23 25 28
38 38 36 33 27 22 18 14 13 11 12 12 14 15 15 17 19 16 21 26 28 29
37 37 36 31 26 20 17 15 13 12 11 12 14 15 16 16 18 20 26 26 26 26
38 37 35 29 24 20 17 15 12 11 12 14 14 15 15 16 19 24 25 24 24 25
39 37 34 28 23 20 17 13 10 12 14 14 15 15 13 17 18 19 21 23 24 25
37 35 30 25 22 19 14 11 12 13 14 15 15 14 14 16 16 17 18 19 21 24

GFSNIL_925_spd_015.txt.gz
Wind_Speed
43 42 38 40 37 36 37 35 33 29 27 23 18 16 15 15 13 14 14 15 15 16
40 40 39 41 37 36 34 32 31 29 27 23 19 17 15 15 14 14 15 15 17 17
40 40 41 43 38 35 33 31 30 29 28 24 21 19 16 16 15 16 16 17 17 18
36 36 37 42 38 35 34 33 31 30 29 25 22 20 18 16 15 16 16 16 18 20
34 39 39 39 39 37 36 34 33 30 29 25 22 20 18 17 15 16 15 17 17 18
31 36 37 38 39 38 36 34 32 30 29 26 23 20 18 16 16 15 17 17 17 18
33 35 36 40 41 39 37 35 32 30 28 25 22 20 18 16 15 15 16 17 19 19
31 32 35 39 41 39 36 34 32 29 27 24 21 20 17 15 15 14 15 17 17 18
29 33 35 37 39 40 38 34 33 29 27 24 22 19 16 14 13 14 15 15 16 16
31 33 35 37 38 39 40 35 32 29 26 24 21 18 15 14 13 13 14 14 14 18
33 34 34 37 37 36 36 37 32 29 26 23 21 17 15 13 13 13 15 16 16 15
35 35 35 37 37 36 35 33 32 30 26 23 20 17 15 13 12 14 15 16 16 16
35 36 36 36 36 35 35 34 31 26 25 23 18 16 15 13 12 13 15 13 14 14
33 34 35 34 34 36 32 31 27 24 24 20 17 16 15 14 13 13 14 13 13 14

GFSNIL_925_spd_021.txt.gz
Wind_Speed
33 37 37 36 33 33 33 36 36 37 33 29 27 25 23 20 19 17 17 15 14 11
32 33 33 36 35 34 33 31 35 37 33 30 28 27 24 21 20 18 17 16 15 14
27 31 31 33 37 33 31 32 34 36 34 31 29 27 25 22 19 19 17 16 15 14
23 27 29 32 37 32 32 32 34 36 35 32 31 29 26 22 20 20 19 16 15 14
21 22 26 30 33 32 31 31 33 35 35 33 31 29 28 25 22 21 20 18 16 15
22 21 24 28 30 33 32 32 33 34 35 34 33 30 28 26 23 21 20 18 17 15
23 22 21 24 28 31 32 32 33 35 35 34 33 30 28 26 23 20 19 17 16 15
26 22 22 23 26 29 32 33 34 34 34 33 32 30 29 26 23 20 18 16 15 15
26 25 23 23 25 28 29 32 33 33 32 33 30 31 30 26 22 19 17 16 15 13
24 24 24 24 25 26 28 30 31 31 31 31 29 32 32 28 20 18 17 15 13 12
25 21 24 22 24 24 26 30 30 30 30 29 27 31 31 30 20 17 14 13 12 12
27 24 25 23 24 25 26 29 28 29 29 28 26 31 30 26 21 16 14 13 12 12
31 26 26 25 26 26 26 28 28 28 29 28 26 30 31 28 18 15 13 12 11 13
33 28 28 25 28 26 26 28 29 29 29 29 26 29 30 28 17 14 12 10 9 9

GFSNIL_925_spd_024.txt.gz
Wind_Speed
32 34 31 33 33 33 34 34 37 42 42 40 39 35 33 31 29 26 23 21 18 15
31 34 32 30 36 34 35 37 39 40 41 39 38 37 35 33 31 27 25 23 20 18
33 35 36 32 33 36 34 34 37 42 42 39 39 39 36 33 31 28 26 24 23 21
32 35 36 32 28 34 35 33 39 42 42 42 40 41 38 36 32 31 27 24 23 21
30 31 35 31 28 26 32 34 37 41 41 40 40 42 41 39 33 33 30 28 23 21
25 26 30 31 29 29 29 32 34 41 39 37 37 39 39 39 34 33 30 27 26 22
20 21 29 34 28 32 29 31 32 38 38 37 37 37 37 36 33 32 29 27 24 22
24 18 25 31 30 31 32 26 30 35 36 36 36 36 36 36 36 30 28 25 23 22
28 18 17 28 33 23 36 31 25 33 35 35 33 34 37 37 35 31 27 26 22 16
26 22 20 22 25 28 33 29 23 33 35 34 33 33 37 36 34 30 25 23 21 17
21 21 25 23 23 27 33 31 24 31 34 34 35 34 35 34 31 27 24 21 17 15
26 29 27 25 23 25 28 33 24 29 34 34 34 36 36 33 29 26 23 20 16 13
29 32 32 29 26 28 28 31 24 26 34 35 34 37 37 36 29 25 22 17 15 12
29 36 37 32 27 25 26 26 27 26 31 33 37 37 38 34 29 26 21 18 15 13

GFSNIL_925_spd_027.txt.gz
Wind_Speed
29 27 31 30 32 32 31 37 43 48 48 49 48 47 45 42 41 37 35 32 26 25
21 22 31 36 35 32 35 34 41 48 50 49 48 48 47 45 42 40 37 33 30 27
21 27 30 33 33 34 38 35 36 46 49 47 50 49 48 45 43 42 39 35 32 28
35 33 29 28 29 31 35 36 30 41 44 43 45 46 46 45 45 44 41 37 34 31
37 37 26 27 34 36 34 37 23 30 38 40 44 45 44 44 41 45 42 39 35 33
32 36 27 26 29 34 35 31 31 24 35 39 41 42 43 45 39 44 43 40 36 33
35 30 34 28 28 30 29 29 31 25 36 41 41 43 41 41 37 40 41 40 37 32
33 33 31 33 26 26 25 29 28 28 37 41 41 42 39 38 39 39 36 38 36 33
31 29 33 30 26 29 27 27 24 24 30 35 37 40 43 41 38 39 38 37 33 30
30 33 27 18 24 28 29 25 28 27 25 33 37 39 40 40 37 40 37 37 34 29
32 27 21 22 26 29 30 27 21 28 29 31 35 38 38 37 39 39 37 36 32 28
27 29 23 23 28 33 31 29 17 27 30 27 34 39 38 36 39 38 35 32 28 25
34 28 25 26 30 35 32 30 17 27 28 25 34 38 39 39 37 36 32 28 24 23
35 27 28 31 30 34 32 29 17 22 27 23 35 39 41 40 38 37 32 29 26 23

GFSNIL_925_spd_030.txt.gz
Wind_Speed
28 24 18 24 28 29 29 30 32 31 33 38 44 49 51 50 47 46 44 44 40 38
27 22 25 30 33 30 29 29 32 36 30 35 39 43 49 47 46 44 46 45 43 38
35 38 35 38 34 28 29 30 33 35 34 29 36 40 44 42 44 42 43 43 42 40
34 37 33 34 39 28 29 33 32 31 32 30 31 38 38 39 40 43 40 40 42 42
31 37 33 36 35 31 30 30 30 31 29 26 25 32 36 37 35 43 37 41 41 42
29 33 36 37 32 32 30 32 26 26 25 27 26 26 34 33 35 40 40 43 42 42
34 32 32 36 32 32 36 30 30 29 28 28 30 25 34 36 38 38 39 40 43 43
29 35 36 27 36 35 29 27 31 34 32 29 30 32 29 38 38 36 33 39 42 43
30 32 28 34 35 20 23 25 28 32 34 30 30 29 35 38 37 37 35 37 38 38
30 26 31 30 25 27 24 28 30 31 29 28 28 30 35 41 36 32 34 35 37 36
28 28 26 27 31 31 30 30 30 29 29 27 29 32 34 33 34 31 35 37 39 37
28 29 27 26 30 32 29 30 28 28 31 26 32 31 30 31 30 29 33 37 37 37
29 27 25 29 29 28 28 32 27 29 28 25 31 28 23 31 28 27 28 34 35 34
24 25 27 24 27 32 32 31 26 28 27 26 28 24 23 34 29 26 25 29 32 34

GFSNIL_925_spd_036.txt.gz
Wind_Speed
24 27 24 20 21 23 24 24 22 24 21 19 19 21 21 22 25 28 34 37 35 33
27 27 25 26 27 23 22 22 24 25 20 20 20 20 21 21 23 26 32 34 37 35
33 33 30 31 30 26 25 22 22 24 22 23 21 21 20 19 23 24 28 32 30 32
44 39 36 31 31 26 27 25 24 24 21 21 22 24 21 21 21 23 26 30 32 32
36 40 40 33 30 28 28 27 25 21 24 24 24 22 21 23 24 24 25 28 31 32
33 38 38 34 31 31 30 31 29 26 28 27 24 20 19 22 28 29 28 27 30 32
31 35 37 39 33 33 35 32 29 28 28 24 21 20 22 23 28 32 30 30 29 32
37 34 34 37 36 36 38 35 30 29 22 25 28 26 20 22 27 31 31 30 28 31
35 37 36 34 34 33 37 37 32 29 25 27 27 22 24 27 30 29 30 30 28 29
35 35 33 35 31 31 33 36 34 31 27 30 30 26 28 30 31 30 30 31 27 28
35 35 34 33 30 29 32 35 33 31 29 31 29 28 32 31 32 31 33 33 29 30
35 34 32 32 28 29 27 29 31 29 29 29 33 30 32 30 31 30 33 31 29 31
34 33 30 31 28 27 28 26 26 28 27 30 36 32 31 31 30 31 32 29 29 35
29 32 28 28 28 26 18 28 24 28 30 32 31 31 29 31 32 31 29 25 26 27

GFSNIL_925_spd_042.txt.gz
Wind_Speed
29 29 30 30 30 31 30 30 30 29 30 30 28 28 27 26 27 25 23 22 21 22
31 30 31 32 32 32 33 33 33 33 33 31 29 28 28 27 28 27 25 22 21 22
32 32 32 33 33 32 31 33 33 33 35 34 30 28 27 28 28 29 27 25 22 21
33 33 33 34 34 32 34 36 34 32 32 31 29 28 26 28 30 29 27 26 25 22
34 35 35 35 35 35 36 34 32 32 31 30 28 27 25 26 27 29 28 27 26 25
33 34 35 36 35 35 35 35 35 34 32 31 28 27 26 27 27 29 30 29 27 26
33 34 35 35 36 36 35 35 35 34 32 31 28 29 28 27 27 25 25 26 26 27
35 35 36 36 36 35 35 34 33 34 33 30 29 29 27 28 27 26 26 28 28 30
36 36 33 35 35 34 34 34 33 33 32 30 29 29 28 29 29 25 26 28 28 29
36 36 37 35 35 35 34 34 34 33 31 29 32 29 28 29 31 28 27 28 28 27
37 38 38 35 35 32 32 32 32 31 30 29 31 26 25 25 29 30 29 29 28 29
36 40 35 36 37 30 24 28 27 29 27 28 28 26 27 25 26 26 29 29 30 31
40 35 38 37 28 25 27 25 26 27 27 27 27 25 25 25 26 26 27 29 31 30
40 36 35 32 26 24 24 20 23 23 23 23 23 24 25 25 26 28 28 29 28 26

GFSNIL_925_spd_045.txt.gz
Wind_Speed
28 28 29 29 31 31 30 29 29 31 31 31 31 31 29 29 29 26 27 27 25 23
30 30 30 33 32 31 32 31 33 32 30 31 31 31 33 32 29 28 28 28 26 25
30 31 32 32 33 33 34 33 34 33 30 33 32 32 35 36 32 30 30 30 26 24
31 32 32 33 33 34 35 34 35 34 35 35 34 31 34 36 31 30 29 29 28 26
30 31 31 32 33 33 35 36 36 35 34 34 32 31 33 34 31 29 28 29 30 26
30 31 32 33 34 35 34 35 36 36 35 35 34 33 32 32 31 29 30 29 27 25
32 33 33 35 36 35 33 35 36 36 36 36 34 32 33 30 30 29 29 32 28 27
33 35 35 35 37 34 36 35 35 37 36 35 35 33 31 32 30 30 33 29 29 27
34 33 36 36 33 38 38 37 35 36 34 32 33 36 37 35 29 28 31 28 26 31
34 36 34 39 37 39 37 38 36 36 31 34 34 35 36 35 33 32 30 31 37 35
33 36 37 38 38 38 35 36 35 30 31 32 32 32 32 31 32 31 32 31 31 20
35 37 37 38 39 36 35 29 29 25 28 28 28 28 27 27 27 28 27 29 30 27
36 38 38 39 38 36 31 28 28 28 27 29 29 27 27 26 24 25 24 24 26 33
39 38 38 38 36 34 30 28 27 25 25 25 25 23 24 24 25 21 21 22 24 26

GFSNIL_925_spd_048.txt.gz
Wind_Speed
24 25 27 27 29 30 29 29 29 33 32 33 33 35 34 34 31 27 28 30 35 32
23 25 28 29 29 30 29 29 29 31 34 33 33 35 34 32 31 30 30 31 30 32
25 26 27 29 30 31 32 31 32 33 33 33 32 31 29 31 33 32 33 35 33 32
26 27 29 28 28 30 32 33 32 32 33 32 33 32 31 31 34 28 33 34 34 34
28 27 27 29 31 28 28 29 31 32 32 34 35 34 33 33 31 30 31 29 30 35
27 27 29 29 30 30 31 37 40 36 34 36 38 36 35 34 31 29 33 28 27 24
28 30 29 31 33 35 37 35 36 35 36 36 39 38 37 33 32 30 31 29 23 28
27 29 34 36 34 36 33 37 38 37 39 37 37 33 35 33 30 28 27 33 27 29
30 33 35 35 34 35 36 38 34 37 38 36 38 34 39 37 33 31 33 32 27 30
32 33 35 35 34 35 38 35 38 36 35 36 33 33 33 37 37 32 29 27 25 24
31 35 36 35 37 38 36 36 37 36 35 30 35 29 32 33 32 29 27 27 26 25
32 38 37 37 37 38 37 36 36 35 30 30 30 31 30 29 25 21 23 24 24 24
37 38 37 37 38 38 36 36 35 32 30 29 31 29 26 26 23 20 20 18 20 21
38 38 37 39 38 37 38 35 32 29 28 29 30 29 26 25 22 20 17 15 16 20